Starlink 2496

decayed
NORAD ID: 48486 Int'l Des: 2021-040 Owner: SPXS Country: US Constellation: starlink
LEOCIRCULAR
Group

About Starlink 2496

Description loading...

Altitude History

Altitude vs Time

uPlot chart will show altitude changes over time

Two-Line Element Set

1 48486U 21040BL 24214.61987356 .17364081 12127-4 48863-2 0 9993
2 48486 53.0242 247.4179 0007328 1.2118 94.2785 16.26924491180283
Epoch: Aug 1, 2024 • Age: 12055 hours

Current Status

Position data unavailable
Launch Date May 9, 2021
Age 4.6 years
Decay Date Aug 1, 2024
Type internet

Technical Details

Classification Payload
Mass 260.00 kg
Dry Mass 248.00 kg
Total Mass 260.00 kg
Length 0.20 m
Diameter 2.80 m
Span 9.00 m
Shape Box + pan
Manufacturer SPXS
Bus Type Starlink
Phase Status Unknown Transfer Status
Owner/State SPXS/US

Large Constellations

Loading constellations...